Regional Weather Roundup
Issued by NWS Kansas City/Pleasant Hill, MO

Home | Current Version | Previous Version | Graphics & Text | Print | Product List | Glossary Off
Versions: 1 2 3 4 5 6 7 8 9 10 11 12 13 14 15 16 17 18 19 20 21 22 23 24 25 26 27 28 29 30 31 32 33 34 35 36 37 38 39 40 41 42 43 44 45 46 47 48 49 50

000
ASUS43 KEAX 011711
RWREAX

WEATHER ROUNDUP FOR EASTERN KANSAS AND NORTHWEST MISSOURI
NATIONAL WEATHER SERVICE KANSAS CITY/PLEASANT HILL MO
1200 PM CDT MON SEP 01 2014

KSZ040-057-103>105-MOZ028-029-037-043-011800-
...KANSAS CITY METROPOLITAN AREA...

CITY           SKY/WX    TMP DP  RH WIND       PRES   REMARKS
K.C. INTL      MOSUNNY   76  68  76 SW12      29.90R
K.C. DOWNTOWN  PTSUNNY   78  65  63 W13       29.89R
LEES SUMMIT    NOT AVBL
OLATHE - IXD   PTSUNNY   76  66  71 W12       29.92R
OLATHE - OJC   PTSUNNY   75  65  70 W10       29.91R
LAWRENCE       PTSUNNY  N/A N/A N/A W12       29.91R

$$

MOZ001>008-011>017-020>025-030>033-038>040-044>046-053-054-011800-
...NORTHERN AND CENTRAL MISSOURI...

CITY           SKY/WX    TMP DP  RH WIND       PRES   REMARKS
ST. JOSEPH     PTSUNNY   75  67  76 SW9       29.88R
MOSBY          MOSUNNY   77  64  65 W9G18     29.89R
WHITEMAN AFB   PTSUNNY   75  66  74 SW15      29.90R
CLINTON        CLOUDY    75  68  78 S9        29.92R
SEDALIA        PTSUNNY   75  65  70 SW9       29.92R
WARSAW         NOT AVBL
MARSHALL       MOSUNNY   77  68  73 W9G17     29.91R
CHILLICOTHE      N/A     75  66  73 VRB6      29.87S
MOBERLY        PTSUNNY   75  64  69 W15       29.89S
KIRKSVILLE     CLOUDY    73  64  73 W13G23    29.88R

$$

MOZ041-047>049-056>058-063>065-088>090-097-011800-
...EASTERN AND SOUTHERN MISSOURI...

CITY           SKY/WX    TMP DP  RH WIND       PRES   REMARKS
ST. LOUIS INTL CLOUDY    79  64  60 W12       29.89R
SPIRIT OF STL  CLOUDY    75  64  68 SW9       29.88R
COLUMBIA       CLOUDY    74  66  76 W13G22    29.91R
JEFFERSON CITY CLOUDY    74  64  71 W10       29.91R
MEXICO         CLOUDY    77  68  73 W13G23    29.90R
ROLLA          CLOUDY    71  65  81 SW13      29.91R
LEBANON        DRIZZLE   68  64  88 SW9       29.96R
OSAGE BEACH    CLOUDY    73  66  78 SW9       29.92S
SPRINGFIELD    PTSUNNY   74  66  76 S21       29.97F
BRANSON        PTSUNNY   72  66  83 SE7       30.05F
NEVADA         PTSUNNY   77  68  73 S9        29.93R
JOPLIN         CLOUDY    76  65  68 SE18G25   29.94F
WEST PLAINS    LGT RAIN  68  65  90 S8        30.02F

$$

IAZ060-094-KSZ022-034>040-054-083-096-NEZ052-066-093-011800-
...KANSAS...SOUTHEAST NEBRASKA AND IOWA...

CITY           SKY/WX    TMP DP  RH WIND       PRES   REMARKS
TOPEKA         PTSUNNY   78  66  66 W12       29.91S
MANHATTAN      PTSUNNY   77  67  71 W7        29.91S
EMPORIA        PTSUNNY   76  63  64 S15G22    29.93S
CHANUTE        CLOUDY    75  64  68 S21G28    29.92R
WICHITA        PTSUNNY   80  66  62 SE14      29.88S
OMAHA          MOSUNNY   75  61  61 W6        29.88R
LINCOLN        MOSUNNY   77  61  57 W13       29.90R
FALLS CITY     MOSUNNY   77  66  68 W6        29.88R
LAMONI         PTSUNNY   74  65  73 W13       29.85S
DES MOINES     PTSUNNY   78  65  63 W15       29.79S

$$



USA.gov is the U.S. government's official web portal to all federal, state and local government web resources and services.